Location: Haliburton Scout Reserve
(45.0900°N, 78.3200°W)
Time: 17:05:10
(UTC-04:00)

IDEFIX/ARIANE 42P - Visible Passes

Search period start: 04 September 2015 00:00
Search period end: 14 September 2015 00:00
Orbit: 785 x 803 km, 98.3° (Epoch: 03 September)

Date Brightness Start Highest point End Pass type
(mag) Time Alt. Az. Time Alt. Az. Time Alt. Az.
04 Sep 4.1 20:35:07 10° SSW 20:39:56 38° W 20:44:46 10° NNW visible
05 Sep 3.0 20:06:22 10° S 20:11:32 68° WSW 20:16:45 10° NNW visible
06 Sep 5.3 21:20:15 10° SW 21:23:30 16° W 21:26:33 10° NW visible
07 Sep 4.7 20:50:23 10° SSW 20:54:51 28° W 20:59:17 10° NW visible
08 Sep 3.6 20:21:21 10° S 20:26:22 50° W 20:31:26 10° NNW visible
09 Sep 5.6 21:36:45 10° WSW 21:38:34 11° W 21:40:03 10° WNW visible
10 Sep 5.1 21:05:53 10° SW 21:09:49 21° W 21:13:38 10° NW visible
11 Sep 4.2 20:36:28 10° SSW 20:41:15 36° W 20:46:02 10° NNW visible
12 Sep 3.1 20:07:41 10° S 20:12:50 65° W 20:18:02 10° NNW visible
13 Sep 5.4 21:21:44 10° SW 21:24:50 15° W 21:27:44 10° NW visible
